CAPE
0 43 4 88 11 3 3 0 0 0 0 0 38 190 530 1341 1749 2109 2279 2224 2281 2405 2636 2762 2857 3030 3021 2929 2750 2434 2249 2023 1662 1464 1318 1202 1085 827 751 747 684 71 41 170
0 3 4 11 0 0 0 0 1 0 4 96 303 580 1406 1786 1823 1899 1890 1959 2080 2277 2324 2516 2684 2701 2689 2365 1852 1486 1388 1143 960 841 698 632 644 511 249 372 541 430 263 62
0 0 34 16 2 7 6 0 0 23 156 291 832 1432 1729 1741 1637 1676 1656 1561 1631 1792 1828 1889 1782 1719 1760 1597 1130 918 737 535 439 217 188 184 55 0 11 28 214 337 422 376
0 0 5 0 0 0 26 232 164 162 334 1547 1748 1791 1671 1565 1528 1521 1442 1452 1589 1524 1405 1293 986 949 799 617 519 432 320 161 140 155 16 0 0 0 0 0 0 0 2 71
0 0 6 0 0 0 3 384 513 879 1361 1473 1526 1490 1561 1563 1468 1255 1288 1459 1344 1136 1082 941 755 582 427 304 254 130 125 124 108 31 0 0 0 0 0 2 0 0 1 3
0 0 0 9 0 0 0 666 978 1215 1312 1416 1431 952 1464 1354 1081 1044 1172 1130 1061 841 651 466 505 336 201 113 73 34 83 121 131 1 0 0 0 0 0 1 1 0 0 1
0 0 0 3 0 0 0 8 1038 1193 1265 1253 990 803 1300 1096 1027 985 986 898 769 588 504 620 566 267 197 134 66 91 132 92 13 9 0 0 0 0 0 0 0 1 1 2
0 0 0 0 1 0 1 130 933 1207 1189 1240 1475 1420 1225 1090 1010 852 774 723 660 678 683 563 315 228 256 190 262 206 84 0 0 0 0 0 0 0 0 0 0 0 1 0
0 0 0 1 21 30 26 529 1292 1361 1380 1432 1409 1285 1082 1079 1099 963 753 580 565 398 368 433 304 180 233 256 208 260 0 0 0 0 0 0 0 0 0 0 0 0 0 0
0 1 2 0 6 33 700 1249 1529 1512 1459 1379 1296 1159 1049 955 1053 981 700 472 520 489 461 340 213 288 315 339 218 125 0 0 0 0 0 0 0 0 0 0 0 0 0 0
0 0 58 117 4 185 902 1462 1423 1307 1233 1236 1098 914 706 594 600 457 456 505 413 447 317 227 120 151 112 100 0 0 0 0 0 0 0 0 0 0 0 0 0 0 0 0
0 102 80 73 203 237 469 1184 1263 1266 1291 1238 1021 759 551 468 419 525 489 329 176 213 158 55 47 73 32 31 0 0 0 0 0 4 0 0 0 0 0 0 0 0 0 0
453 349 251 31 179 181 141 862 1302 1291 1337 1203 948 673 496 517 566 477 380 149 218 96 71 14 1 12 35 0 0 0 3 8 0 0 0 0 0 0 0 0 0 0 0 0
35 235 66 30 28 263 595 1085 1470 1412 1144 957 831 675 683 516 487 391 220 318 184 46 14 0 0 3 0 0 2 1 0 3 22 23 0 0 0 4 0 0 0 0 0 0
278 620 167 572 511 797 1277 1137 1202 1139 974 876 877 712 558 510 446 421 260 81 11 0 0 0 0 0 0 0 1 0 0 0 9 0 0 0 0 5 20 42 19 0 0 0
505 801 356 487 722 1045 1088 1474 1208 1113 1113 1144 939 718 654 480 269 110 9 0 0 0 0 0 0 0 0 0 0 0 0 0 0 0 0 0 0 0 0 0 9 0 0 0
559 597 514 642 423 255 34 622 1184 1177 1117 987 839 729 543 222 21 0 0 0 0 0 0 0 0 0 0 0 0 0 0 0 0 0 0 0 0 0 0 0 0 0 0 0
566 582 655 810 1246 1374 1285 1008 835 1022 1054 972 840 571 207 26 0 0 0 0 0 0 0 0 0 0 0 0 0 0 0 0 0 0 0 0 0 0 0 0 0 0 0 0
337 348 525 719 1662 1160 419 3 969 1077 1033 845 662 324 60 5 0 0 0 0 0 0 0 0 0 0 0 0 0 0 0 0 0 0 0 0 0 0 0 0 0 0 0 0
21 212 316 492 1770 1326 896 956 933 987 884 628 417 195 37 0 0 0 0 0 0 0 0 0 0 0 0 0 0 0 0 0 0 0 0 0 0 0 0 0 0 0 0 0
0 55 154 695 1685 1115 1056 956 890 846 614 312 225 102 16 0 0 0 0 0 0 0 0 0 0 0 0 0 0 0 0 0 0 0 0 0 0 0 0 0 0 0 1 0
12 0 95 1434 1007 863 760 672 669 538 362 274 148 84 2 0 0 0 0 0 0 0 0 0 0 0 0 0 0 0 0 0 0 0 0 0 0 0 0 1 6 8 1 0
28 216 879 948 759 695 556 496 400 304 320 202 60 4 0 0 0 0 0 0 0 0 0 0 0 0 0 0 0 0 0 0 0 0 0 0 0 0 6 6 6 0 0 0
1067 1384 1020 785 603 577 474 429 484 390 188 55 0 0 0 0 0 0 0 0 0 0 0 0 0 0 0 0 0 0 0 0 0 0 0 0 0 11 5 4 0 1 1 0
1022 923 851 544 488 429 427 246 175 147 30 0 0 0 0 0 0 0 0 0 0 0 0 0 0 0 0 0 0 0 0 0 0 0 0 0 0 13 9 18 4 0 0 0
623 531 449 269 265 217 130 85 53 18 0 0 0 0 0 0 0 0 0 0 0 0 0 0 0 0 0 0 0 0 0 0 0 0 0 0 1 11 13 10 4 0 0 0
159 9 111 45 169 35 20 13 1 0 0 0 0 0 0 0 0 0 0 0 0 0 0 0 0 0 0 0 0 0 0 0 0 0 7 8 4 6 2 0 0 0 0 0
CIN
-1 -8 -20 -9 -87 -101 -84 -0 -0 -0 -0 -0 -232 -110 -70 -88 -103 -123 -145 -143 -131 -125 -133 -129 -103 -120 -108 -113 -123 -146 -132 -114 -149 -175 -146 -148 -154 -197 -209 -174 -109 -198 -97 -134
-0 -21 -57 -28 -0 -0 -0 -0 -105 -0 -176 -159 -109 -71 -91 -108 -138 -175 -192 -201 -197 -195 -179 -179 -170 -162 -160 -181 -241 -276 -244 -272 -276 -279 -278 -243 -211 -220 -259 -187 -94 -84 -130 -201
-0 -0 -59 -8 -10 -36 -32 -0 -0 -119 -71 -76 -58 -64 -117 -144 -165 -184 -210 -237 -244 -251 -240 -227 -229 -216 -198 -208 -272 -301 -312 -338 -336 -384 -358 -335 -267 -0 -276 -178 -112 -67 -46 -68
-0 -0 -43 -0 -0 -0 -8 -23 -54 -64 -73 -64 -85 -133 -146 -153 -182 -221 -263 -275 -275 -273 -277 -291 -336 -325 -329 -362 -384 -397 -427 -488 -436 -357 -417 -0 -0 -0 -0 -0 -0 -0 -32 -204
-0 -0 -23 -0 -0 -0 -1 -34 -61 -71 -86 -122 -150 -160 -149 -167 -209 -250 -280 -284 -293 -325 -312 -319 -354 -393 -451 -496 -489 -561 -506 -437 -398 -453 -0 -0 -0 -0 -0 -0 -0 -0 -46 -41
-0 -0 -0 -10 -0 -0 -0 -35 -61 -78 -100 -119 -122 -130 -171 -197 -245 -293 -303 -315 -333 -372 -411 -468 -420 -503 -583 -620 -617 -623 -481 -372 -294 -60 -0 -0 -0 -0 -0 -0 -0 -0 -0 -0
-0 -0 -0 -1 -0 -0 -0 -54 -62 -91 -117 -136 -131 -169 -222 -269 -305 -329 -343 -358 -380 -428 -442 -348 -342 -497 -518 -515 -544 -453 -332 -335 -417 -359 -0 -0 -0 -0 -0 -0 -0 -0 -0 -0
-0 -0 -0 -0 -6 -0 -33 -46 -68 -103 -119 -134 -184 -239 -243 -288 -334 -375 -393 -397 -396 -366 -317 -333 -439 -476 -413 -406 -279 -264 -334 -0 -0 -0 -0 -0 -0 -0 -0 -0 -0 -0 -0 -0
-0 -0 -0 -8 -61 -83 -75 -70 -91 -123 -146 -188 -225 -262 -274 -329 -347 -382 -399 -436 -395 -450 -432 -360 -406 -453 -349 -270 -247 -146 -0 -0 -0 -0 -0 -0 -0 -0 -0 -0 -0 -0 -0 -0
-0 -6 -1 -0 -92 -75 -81 -98 -160 -176 -177 -199 -228 -291 -319 -335 -341 -351 -404 -446 -380 -357 -334 -348 -387 -283 -209 -138 -157 -186 -0 -0 -0 -0 -0 -0 -0 -0 -0 -0 -0 -0 -0 -0
-0 -0 -21 -30 -29 -40 -88 -111 -163 -181 -215 -232 -270 -303 -361 -404 -402 -421 -421 -394 -390 -340 -359 -368 -392 -303 -275 -227 -0 -0 -0 -0 -0 -0 -0 -0 -0 -0 -0 -0 -0 -0 -0 -0
-0 -38 -23 -41 -42 -39 -46 -95 -132 -166 -208 -251 -286 -348 -412 -442 -448 -415 -403 -431 -467 -405 -390 -424 -388 -314 -300 -246 -0 -0 -0 -0 -1 -11 -0 -0 -0 -0 -0 -0 -0 -0 -0 -0
-39 -28 -23 -62 -31 -36 -49 -81 -120 -145 -199 -289 -359 -429 -449 -458 -422 -422 -405 -466 -395 -414 -380 -391 -12 -239 -226 -0 -0 -0 -11 -13 -0 -0 -1 -0 -0 -0 -0 -0 -0 -0 -0 -0
-209 -71 -28 -19 -67 -28 -48 -105 -130 -190 -288 -347 -445 -450 -444 -439 -410 -408 -424 -356 -352 -387 -384 -0 -0 -53 -0 -0 -5 -3 -1 -4 -20 -30 -0 -0 -0 -32 -0 -0 -0 -0 -0 -0
-127 -83 -54 -59 -67 -79 -109 -133 -173 -248 -330 -385 -422 -450 -414 -411 -393 -377 -382 -410 -345 -0 -0 -0 -0 -0 -0 -0 -7 -13 -0 -0 -17 -0 -7 -0 -0 -22 -27 -15 -33 -0 -0 -0
-128 -100 -73 -85 -119 -195 -173 -136 -225 -312 -358 -418 -435 -379 -388 -407 -425 -431 -153 -0 -0 -0 -0 -0 -0 -0 -0 -0 -0 -0 -0 -0 -0 -0 -0 -0 -0 -0 -0 -0 -31 -0 -0 -0
-149 -96 -102 -80 -124 -123 -206 -176 -161 -346 -450 -442 -376 -368 -405 -435 -485 -0 -0 -0 -0 -0 -0 -0 -0 -0 -0 -0 -0 -0 -0 -0 -0 -0 -0 -0 -0 -0 -0 -0 -0 -0 -0 -0
-126 -169 -202 -134 -72 -129 -141 -121 -208 -358 -408 -374 -340 -368 -434 -516 -0 -0 -0 -0 -0 -0 -0 -0 -0 -0 -0 -0 -0 -0 -0 -0 -0 -0 -0 -0 -0 -0 -0 -0 -0 -0 -0 -0
-141 -136 -153 -180 -53 -93 -148 -402 -282 -336 -399 -380 -345 -377 -445 -194 -0 -0 -0 -0 -0 -0 -0 -0 -0 -0 -0 -0 -0 -0 -0 -0 -0 -0 -0 -0 -0 -0 -0 -0 -0 -0 -0 -0
-56 -191 -151 -196 -92 -210 -266 -254 -298 -384 -378 -366 -398 -415 -420 -0 -0 -0 -0 -0 -0 -0 -0 -0 -0 -0 -0 -0 -0 -0 -0 -0 -0 -0 -0 -0 -0 -0 -0 -0 -0 -0 -0 -0
-17 -218 -171 -144 -75 -191 -273 -341 -381 -359 -372 -372 -395 -430 -452 -0 -0 -0 -0 -0 -0 -0 -0 -0 -0 -0 -0 -0 -0 -0 -0 -0 -0 -0 -0 -0 -0 -0 -0 -0 -0 -1 -5 -1
-104 -0 -185 -70 -149 -242 -342 -358 -348 -370 -349 -326 -364 -402 -86 -0 -0 -0 -0 -0 -0 -0 -0 -0 -0 -0 -0 -0 -0 -0 -0 -0 -0 -0 -0 -0 -0 -0 -0 -5 -10 -28 -39 -10
-195 -151 -85 -94 -135 -227 -286 -298 -335 -313 -278 -371 -427 -441 -0 -0 -0 -0 -0 -0 -0 -0 -0 -0 -0 -0 -0 -0 -0 -0 -0 -0 -0 -0 -0 -0 -0 -0 -13 -12 -30 -0 -0 -0
-13 -38 -58 -106 -135 -111 -187 -245 -271 -307 -409 -451 -30 -0 -0 -0 -0 -0 -0 -0 -0 -0 -0 -0 -0 -0 -0 -0 -0 -0 -0 -0 -0 -0 -0 -0 -0 -13 -7 -12 -0 -14 -38 -0
-65 -72 -69 -76 -62 -122 -135 -61 -220 -466 -456 -0 -0 -0 -0 -0 -0 -0 -0 -0 -0 -0 -0 -0 -0 -0 -0 -0 -0 -0 -0 -0 -0 -0 -0 -0 -1 -10 -7 -11 -30 -0 -0 -0
-43 -65 -16 -9 -44 -148 -96 -200 -351 -370 -60 -0 -0 -0 -0 -0 -0 -0 -0 -0 -0 -0 -0 -0 -0 -0 -0 -0 -0 -0 -0 -0 -0 -0 -0 -0 -15 -12 -11 -33 -59 -0 -0 -0
-38 -43 -22 -33 -21 -77 -214 -308 -112 -0 -0 -0 -0 -0 -0 -0 -0 -0 -0 -0 -0 -0 -0 -0 -0 -0 -0 -0 -0 -0 -0 -0 -0 -0 -19 -24 -20 -24 -44 -0 -0 -54 -0 -0
Wind_Speed
26 23 24 13 4 5 9 5 9 18 13 14 16 15 16 17 16 17 18 18 18 19 20 21 21 21 20 21 22 22 21 20 22 23 23 24 27 27 31 31 18 20 3 7
23 27 24 27 4 3 7 10 14 10 14 17 18 18 16 15 16 17 17 17 18 19 20 21 22 22 22 23 23 22 22 23 24 25 26 27 29 31 31 30 24 13 7 11
25 25 23 31 6 9 2 2 3 20 19 15 15 16 15 15 15 16 16 17 18 19 21 22 22 23 23 24 24 24 23 24 25 26 27 28 30 32 33 31 25 23 20 20
28 22 23 13 7 3 3 9 14 15 12 13 15 14 13 14 15 16 16 17 18 19 21 22 23 23 23 24 24 24 25 26 27 27 28 30 31 33 33 34 34 32 30 29
23 30 23 19 13 3 8 6 10 12 13 15 15 14 13 13 15 15 16 17 19 20 21 22 22 22 23 24 24 25 25 26 27 28 30 32 33 33 33 33 34 34 32 31
20 25 28 20 16 10 4 3 14 16 15 14 10 9 9 11 14 15 16 17 19 20 21 22 22 22 23 24 24 24 25 26 27 28 30 32 33 34 33 32 33 33 33 33
37 25 22 15 6 5 10 6 14 14 12 11 6 8 11 12 13 15 16 18 19 20 20 20 21 22 22 22 23 23 24 25 26 25 28 29 31 32 33 33 33 33 34 34
35 29 28 16 15 16 9 3 11 12 13 10 12 12 11 11 12 14 16 17 18 19 20 20 21 21 21 21 21 22 23 25 25 26 26 27 27 29 31 33 33 33 33 33
33 26 19 13 11 8 7 7 12 14 13 13 13 11 10 10 11 13 15 16 17 18 19 20 20 20 21 20 20 21 23 24 25 24 26 27 29 29 29 28 30 30 31 32
19 19 11 7 5 2 10 13 13 14 13 12 11 11 11 10 10 11 13 15 17 18 19 19 20 20 20 20 19 19 20 22 22 23 24 25 26 27 28 28 28 28 28 28
25 22 15 13 11 7 8 13 13 13 13 12 12 10 11 10 10 11 12 14 16 17 17 18 19 20 19 19 19 19 18 18 19 19 22 24 26 25 25 25 25 26 26 27
28 18 16 9 7 10 11 14 16 15 13 13 14 12 11 10 10 10 12 13 15 16 16 17 17 19 19 18 17 17 18 19 18 17 16 19 22 24 25 24 25 25 26 26
24 14 7 7 6 9 9 17 17 15 13 12 11 12 11 9 9 10 11 12 13 14 16 17 17 17 18 17 18 20 18 18 19 19 19 17 17 20 21 22 23 24 26 27
13 17 13 14 10 6 8 12 15 11 10 10 10 10 9 10 10 10 10 11 12 14 15 16 17 17 16 17 17 18 18 19 17 18 19 19 18 16 17 18 20 22 23 25
13 14 18 5 10 9 15 16 14 10 9 8 7 8 8 7 7 9 10 11 12 13 14 15 17 19 17 17 17 17 17 19 17 18 19 18 17 16 16 16 16 20 23 25
17 13 10 8 7 12 6 12 11 8 6 4 4 5 5 7 8 8 9 10 11 13 15 16 16 17 17 16 15 16 17 18 18 18 20 21 22 23 23 24 17 20 24 27
22 20 17 16 17 14 15 17 12 9 6 4 2 3 5 6 6 7 8 9 11 13 15 15 16 16 17 18 16 15 17 18 19 19 21 21 22 22 23 23 19 20 22 23
27 26 23 20 6 10 8 6 9 8 5 3 1 3 4 4 4 5 7 9 11 13 14 14 14 15 16 16 17 17 15 16 18 20 20 18 21 22 23 24 23 19 18 21
33 32 31 25 17 16 16 13 15 8 5 5 4 3 1 2 3 5 7 9 11 13 13 13 13 14 14 14 17 19 13 15 17 19 21 19 19 19 21 21 21 21 22 21
39 36 33 32 13 16 15 15 16 10 7 6 4 3 1 1 2 4 6 8 10 11 11 12 13 14 13 14 17 17 16 16 18 19 18 20 20 23 18 19 21 21 23 26
38 37 39 29 18 16 18 18 15 11 7 5 5 4 3 1 2 4 7 10 9 9 11 13 13 14 13 15 19 14 15 16 17 17 18 19 20 20 21 20 21 20 23 23
37 38 37 21 20 19 17 15 11 9 8 6 5 4 2 1 1 5 7 8 8 9 9 12 13 14 13 16 17 15 16 17 17 19 20 19 20 19 18 19 21 22 22 23
37 36 26 24 23 21 18 16 13 11 8 8 7 5 3 1 4 5 7 6 6 9 11 11 13 12 12 16 16 16 14 16 18 20 20 20 18 17 19 21 20 21 22 23
33 23 23 24 22 20 18 16 14 11 7 8 7 5 3 1 5 7 6 6 6 9 10 11 11 10 12 14 16 15 16 18 18 18 18 16 16 17 20 21 19 20 22 23
21 20 20 21 23 20 12 14 13 11 11 9 7 4 2 3 4 5 6 6 7 9 11 11 10 10 12 15 14 15 16 16 14 14 15 14 15 18 20 20 18 20 21 23
12 10 10 17 21 19 18 15 12 12 10 8 5 1 4 5 5 4 4 6 8 9 10 9 9 10 12 14 15 15 14 12 12 10 11 10 15 18 20 19 19 21 22 23
19 17 21 8 11 13 13 10 9 8 7 8 5 5 3 3 4 4 3 3 6 7 8 9 9 11 11 13 13 12 12 12 12 10 16 13 18 21 18 19 19 20 21 23
Wind_Direction
253 242 244 246 256 317 330 349 235 126 111 109 102 84 74 66 56 50 45 44 41 34 28 22 20 16 17 12 3 5 4 4 357 355 345 344 340 342 337 342 344 5 256 335
253 234 232 235 191 227 18 103 122 120 110 109 98 87 70 62 58 53 47 40 32 25 20 18 18 16 15 12 8 5 1 358 358 357 355 351 345 342 347 350 356 8 334 321
232 221 259 229 211 150 187 86 105 126 118 105 93 86 73 56 50 50 42 34 30 27 24 21 18 17 12 9 7 6 6 5 1 359 358 356 352 346 344 350 355 352 345 339
216 243 238 217 235 136 118 90 113 114 113 102 94 73 56 50 55 50 44 36 29 26 24 25 27 25 24 21 20 14 8 6 6 5 4 -0 356 353 350 347 344 343 341 338
237 228 238 240 252 275 134 126 135 121 110 101 88 64 43 54 53 48 46 40 36 35 34 35 37 37 35 30 26 23 20 15 12 12 8 4 2 1 1 359 356 355 355 352
222 241 235 246 243 258 129 133 130 126 121 113 94 48 60 65 59 49 42 40 39 41 42 41 41 40 36 33 32 28 24 21 20 19 16 12 12 9 9 12 11 11 9 8
227 246 248 259 218 219 228 196 143 139 137 125 89 78 95 77 57 46 43 42 42 44 42 41 42 40 38 40 36 34 29 25 22 25 21 22 22 23 24 25 23 23 22 21
232 242 241 270 253 243 248 160 156 139 130 107 93 91 97 86 70 63 51 45 48 44 39 41 39 40 40 37 39 35 32 27 27 27 24 25 28 29 32 34 34 32 30 28
236 245 257 275 282 230 217 162 142 135 128 116 106 101 99 89 81 75 60 53 45 39 37 37 38 39 36 37 40 39 35 33 33 33 29 28 25 28 32 43 40 39 33 31
255 248 240 244 234 181 130 140 138 132 125 115 112 107 99 89 77 66 60 51 46 40 38 38 37 36 35 39 42 43 40 37 38 35 33 31 30 28 28 30 32 32 30 28
247 251 257 244 231 203 154 145 142 137 130 120 115 110 104 94 79 71 58 51 43 37 37 34 32 30 36 40 40 35 44 42 40 38 33 31 27 26 27 30 30 27 27 23
240 257 263 227 191 170 156 155 150 139 128 122 119 113 107 94 83 67 55 49 41 39 39 35 33 30 34 38 38 37 35 30 28 32 38 32 27 25 26 32 33 32 30 26
238 245 242 210 193 166 163 151 150 145 137 124 115 111 104 91 79 67 52 47 47 41 34 30 28 29 31 34 26 25 27 25 24 21 23 29 32 26 25 29 28 28 25 25
262 238 243 231 234 159 149 145 144 137 130 122 113 103 96 93 83 66 60 57 49 39 34 32 29 29 35 28 28 21 20 20 27 25 25 29 28 32 28 25 23 22 21 18
284 266 245 320 249 192 165 159 157 148 138 128 117 115 104 92 73 68 62 55 43 35 31 30 23 19 28 25 24 22 18 14 18 18 20 23 26 25 22 16 21 19 15 14
264 278 293 245 144 141 143 240 170 157 152 144 129 121 102 93 84 70 65 55 42 25 24 22 19 20 21 22 24 23 15 8 13 14 13 13 16 17 16 17 27 19 14 13
259 260 284 301 236 221 238 217 187 158 149 146 132 121 112 97 75 58 46 40 32 22 17 16 18 19 14 13 16 22 18 21 14 15 10 12 12 10 8 9 18 16 17 17
266 265 274 301 233 168 177 220 164 144 152 155 160 149 127 100 61 37 37 32 24 16 15 20 21 16 13 13 9 3 21 23 15 11 18 19 17 15 13 13 15 19 19 15
264 266 265 276 273 213 213 231 232 186 177 180 185 186 159 79 56 41 30 23 13 9 15 28 24 19 17 15 6 3 33 25 23 19 14 15 13 20 18 18 14 15 9 10
259 260 264 276 239 213 208 191 177 182 193 187 177 184 205 2 53 34 24 9 6 18 38 35 27 22 23 18 7 8 19 20 16 17 16 13 8 8 20 19 14 11 6 1
256 258 258 274 237 214 200 194 195 202 204 196 206 193 190 134 50 18 1 357 20 39 38 25 24 17 22 12 3 28 23 21 19 17 16 14 13 12 13 13 9 11 6 10
257 257 260 246 226 223 212 206 204 201 212 209 190 166 180 245 5 360 3 5 27 36 32 20 20 16 14 4 3 20 20 17 16 13 12 14 14 11 15 11 11 11 11 8
258 256 243 229 223 219 210 210 209 204 184 178 181 177 203 278 334 343 347 20 46 23 15 22 14 13 13 5 17 22 24 13 10 8 9 10 11 14 11 11 14 9 7 5
257 252 230 230 224 223 217 216 204 201 187 167 156 162 161 302 341 356 17 38 44 20 19 12 17 22 12 8 9 17 10 10 12 13 10 12 12 11 8 6 9 10 10 10
263 254 238 221 213 215 210 229 198 176 166 158 151 154 139 9 14 33 28 31 44 25 16 16 26 22 12 9 17 16 10 10 16 18 19 19 16 7 6 7 13 16 13 9
258 239 248 217 215 200 196 163 158 153 156 146 139 106 82 82 64 29 33 25 15 21 20 29 28 17 12 9 10 12 14 16 16 20 15 15 10 8 7 14 14 10 8 6
256 238 216 191 137 188 196 173 168 164 154 139 122 100 70 27 37 44 8 0 32 35 41 45 37 33 28 15 17 25 25 21 15 13 10 20 9 5 13 11 10 8 6 5